TimeMDT,TemperatureF,Dew PointF,Humidity,Sea Level PressureIn,VisibilityMPH,Wind Direction,Wind SpeedMPH,Gust SpeedMPH,PrecipitationIn,Events,Conditions,WindDirDegrees,DateUTC
12:53 AM,46.9,37.0,68,30.31,10.0,NNE,8.1,-,N/A,,Clear,20,2013-05-11 06:53:00
1:53 AM,45.0,35.1,68,30.31,10.0,NW,5.8,-,N/A,,Overcast,310,2013-05-11 07:53:00
2:53 AM,44.1,36.0,73,30.32,10.0,WNW,5.8,-,N/A,,Overcast,290,2013-05-11 08:53:00
3:53 AM,42.1,37.0,82,30.32,10.0,Calm,Calm,-,0.00,,Overcast,0,2013-05-11 09:53:00
4:53 AM,41.0,35.1,79,30.32,10.0,North,3.5,-,N/A,,Mostly Cloudy,350,2013-05-11 10:53:00
5:53 AM,39.9,35.1,83,30.34,10.0,Calm,Calm,-,N/A,,Overcast,0,2013-05-11 11:53:00
6:53 AM,45.0,35.1,68,30.35,10.0,Calm,Calm,-,N/A,,Overcast,0,2013-05-11 12:53:00
7:53 AM,46.9,33.1,59,30.34,10.0,South,3.5,-,0.00,Rain,Light Rain,170,2013-05-11 13:53:00
8:53 AM,51.1,32.0,48,30.33,10.0,Variable,3.5,-,0.00,,Mostly Cloudy,0,2013-05-11 14:53:00
9:53 AM,53.1,30.0,41,30.32,10.0,South,4.6,-,N/A,,Mostly Cloudy,170,2013-05-11 15:53:00
10:53 AM,57.0,30.9,37,30.29,10.0,NNE,4.6,-,N/A,,Partly Cloudy,20,2013-05-11 16:53:00
11:53 AM,59.0,33.1,38,30.27,10.0,Calm,Calm,-,N/A,,Clear,0,2013-05-11 17:53:00
12:53 PM,63.0,34.0,34,30.25,10.0,Variable,5.8,-,N/A,,Clear,0,2013-05-11 18:53:00
1:53 PM,66.9,34.0,30,30.21,10.0,NW,8.1,-,N/A,,Clear,320,2013-05-11 19:53:00
2:53 PM,68.0,32.0,26,30.18,10.0,WSW,8.1,-,N/A,,Clear,250,2013-05-11 20:53:00
4:53 PM,72.0,24.1,17,30.12,10.0,NW,10.4,-,N/A,,Clear,310,2013-05-11 22:53:00
5:53 PM,72.0,21.9,15,30.12,10.0,NNW,15.0,19.6,N/A,,Scattered Clouds,330,2013-05-11 23:53:00
6:53 PM,69.1,21.9,17,30.09,10.0,North,11.5,-,N/A,,Clear,350,2013-05-12 00:53:00
8:53 PM,57.0,28.0,33,30.13,10.0,ENE,6.9,-,N/A,,Clear,70,2013-05-12 02:53:00
9:53 PM,55.9,30.9,39,30.13,10.0,East,5.8,-,N/A,,Clear,80,2013-05-12 03:53:00
10:53 PM,50.0,32.0,50,30.13,10.0,Calm,Calm,-,N/A,,Clear,0,2013-05-12 04:53:00
11:53 PM,51.1,32.0,48,30.12,10.0,North,6.9,-,N/A,,Clear,10,2013-05-12 05:53:00